Year,Month,Day,Hour,Minute,Value (Times are PST for temperature in C)
2006,08,27,00,00,15.00
2006,08,27,00,01,15.00
2006,08,27,00,02,15.00
2006,08,27,00,03,15.00
2006,08,27,00,04,15.00
2006,08,27,00,05,14.90
2006,08,27,00,06,14.90
2006,08,27,00,07,14.90
2006,08,27,00,08,14.90
2006,08,27,00,09,14.90
2006,08,27,00,10,14.90
2006,08,27,00,11,14.90
2006,08,27,00,12,14.80
2006,08,27,00,13,14.80
2006,08,27,00,14,14.80
2006,08,27,00,15,14.80
2006,08,27,00,16,14.80
2006,08,27,00,17,14.80
2006,08,27,00,18,14.80
2006,08,27,00,19,14.80
2006,08,27,00,20,14.80
2006,08,27,00,21,14.80
2006,08,27,00,22,14.80
2006,08,27,00,23,14.80
2006,08,27,00,24,14.80
2006,08,27,00,25,14.80
2006,08,27,00,26,14.80
2006,08,27,00,27,14.80
2006,08,27,00,28,14.80
2006,08,27,00,29,14.80
2006,08,27,00,30,14.80
2006,08,27,00,31,14.80
2006,08,27,00,32,14.70
2006,08,27,00,33,14.70
2006,08,27,00,34,14.70
2006,08,27,00,35,14.70
2006,08,27,00,36,14.70
2006,08,27,00,37,14.70
2006,08,27,00,38,14.60
2006,08,27,00,39,14.60
2006,08,27,00,40,14.60
2006,08,27,00,41,14.60
2006,08,27,00,42,14.60
2006,08,27,00,43,14.60
2006,08,27,00,44,14.60
2006,08,27,00,45,14.60
2006,08,27,00,46,14.60
2006,08,27,00,47,14.60
2006,08,27,00,48,14.60
2006,08,27,00,49,14.60
2006,08,27,00,50,14.60
2006,08,27,00,51,14.60
2006,08,27,00,52,14.60
2006,08,27,00,53,14.60
2006,08,27,00,54,14.60
2006,08,27,00,55,14.60
2006,08,27,00,56,14.60
2006,08,27,00,57,14.60
2006,08,27,00,58,14.60
2006,08,27,00,59,14.60
2006,08,27,01,00,14.60
2006,08,27,01,01,14.60
2006,08,27,01,02,14.60
2006,08,27,01,03,14.60
2006,08,27,01,04,14.60
2006,08,27,01,05,14.60
2006,08,27,01,06,14.60
2006,08,27,01,07,14.60
2006,08,27,01,08,14.50
2006,08,27,01,09,14.50
2006,08,27,01,10,14.50
2006,08,27,01,11,14.50
2006,08,27,01,12,14.50
2006,08,27,01,13,14.50
2006,08,27,01,14,14.50
2006,08,27,01,15,14.40
2006,08,27,01,16,14.40
2006,08,27,01,17,14.40
2006,08,27,01,18,14.40
2006,08,27,01,19,14.40
2006,08,27,01,20,14.30
2006,08,27,01,21,14.30
2006,08,27,01,22,14.30
2006,08,27,01,23,14.30
2006,08,27,01,24,14.30
2006,08,27,01,25,14.20
2006,08,27,01,26,14.20
2006,08,27,01,27,14.20
2006,08,27,01,28,14.20
2006,08,27,01,29,14.20
2006,08,27,01,30,14.20
2006,08,27,01,31,14.20
2006,08,27,01,32,14.20
2006,08,27,01,33,14.20
2006,08,27,01,34,14.20
2006,08,27,01,35,14.10
2006,08,27,01,36,14.10
2006,08,27,01,37,14.10
2006,08,27,01,38,14.10
2006,08,27,01,39,14.00
2006,08,27,01,40,14.00
2006,08,27,01,41,14.00
2006,08,27,01,42,14.00
2006,08,27,01,43,14.00
2006,08,27,01,44,14.00
2006,08,27,01,45,13.90
2006,08,27,01,46,13.90
2006,08,27,01,47,13.90
2006,08,27,01,48,13.90
2006,08,27,01,49,13.90
2006,08,27,01,50,13.90
2006,08,27,01,51,13.90
2006,08,27,01,52,13.90
2006,08,27,01,53,13.90
2006,08,27,01,54,13.90
2006,08,27,01,55,13.90
2006,08,27,01,56,13.90
2006,08,27,01,57,13.90
2006,08,27,01,58,14.00
2006,08,27,01,59,14.00
2006,08,27,02,00,14.00
2006,08,27,02,01,14.00
2006,08,27,02,02,14.00
2006,08,27,02,03,14.00
2006,08,27,02,04,14.00
2006,08,27,02,05,14.00
2006,08,27,02,06,14.00
2006,08,27,02,07,14.00
2006,08,27,02,08,14.00
2006,08,27,02,09,14.00
2006,08,27,02,10,14.00
2006,08,27,02,11,14.10
2006,08,27,02,12,14.10
2006,08,27,02,13,14.10
2006,08,27,02,14,14.00
2006,08,27,02,15,14.00
2006,08,27,02,16,14.00
2006,08,27,02,17,14.00
2006,08,27,02,18,14.00
2006,08,27,02,19,14.00
2006,08,27,02,20,14.00
2006,08,27,02,21,14.00
2006,08,27,02,22,14.00
2006,08,27,02,23,14.00
2006,08,27,02,24,14.00
2006,08,27,02,25,14.00
2006,08,27,02,26,14.00
2006,08,27,02,27,13.90
2006,08,27,02,28,13.90
2006,08,27,02,29,13.90
2006,08,27,02,30,13.90
2006,08,27,02,31,13.90
2006,08,27,02,32,13.90
2006,08,27,02,33,13.80
2006,08,27,02,34,13.80
2006,08,27,02,35,13.80
2006,08,27,02,36,13.80
2006,08,27,02,37,13.70
2006,08,27,02,38,13.70
2006,08,27,02,39,13.70
2006,08,27,02,40,13.70
2006,08,27,02,41,13.70
2006,08,27,02,42,13.70
2006,08,27,02,43,13.70
2006,08,27,02,44,13.70
2006,08,27,02,45,13.70
2006,08,27,02,46,13.70
2006,08,27,02,47,13.70
2006,08,27,02,48,13.70
2006,08,27,02,49,13.70
2006,08,27,02,50,13.60
2006,08,27,02,51,13.60
2006,08,27,02,52,13.70
2006,08,27,02,53,13.70
2006,08,27,02,54,13.70
2006,08,27,02,55,13.70
2006,08,27,02,56,13.70
2006,08,27,02,57,13.60
2006,08,27,02,58,13.60
2006,08,27,02,59,13.60
2006,08,27,03,00,13.60
2006,08,27,03,01,13.60
2006,08,27,03,02,13.60
2006,08,27,03,03,13.60
2006,08,27,03,04,13.50
2006,08,27,03,05,13.50
2006,08,27,03,06,13.50
2006,08,27,03,07,13.50
2006,08,27,03,08,13.50
2006,08,27,03,09,13.40
2006,08,27,03,10,13.40
2006,08,27,03,11,13.40
2006,08,27,03,12,13.40
2006,08,27,03,13,13.30
2006,08,27,03,14,13.30
2006,08,27,03,15,13.30
2006,08,27,03,16,13.30
2006,08,27,03,17,13.30
2006,08,27,03,18,13.30
2006,08,27,03,19,13.30
2006,08,27,03,20,13.30
2006,08,27,03,21,13.20
2006,08,27,03,22,13.20
2006,08,27,03,23,13.20
2006,08,27,03,24,13.20
2006,08,27,03,25,13.20
2006,08,27,03,26,13.20
2006,08,27,03,27,13.20
2006,08,27,03,28,13.10
2006,08,27,03,29,13.10
2006,08,27,03,30,13.10
2006,08,27,03,31,13.10
2006,08,27,03,32,13.10
2006,08,27,03,33,13.10
2006,08,27,03,34,13.10
2006,08,27,03,35,13.10
2006,08,27,03,36,13.00
2006,08,27,03,37,13.00
2006,08,27,03,38,13.00
2006,08,27,03,39,13.00
2006,08,27,03,40,13.00
2006,08,27,03,41,13.00
2006,08,27,03,42,13.00
2006,08,27,03,43,13.00
2006,08,27,03,44,12.90
2006,08,27,03,45,12.90
2006,08,27,03,46,12.90
2006,08,27,03,47,12.90
2006,08,27,03,48,12.90
2006,08,27,03,49,12.90
2006,08,27,03,50,12.90
2006,08,27,03,51,12.80
2006,08,27,03,52,12.80
2006,08,27,03,53,12.80
2006,08,27,03,54,12.80
2006,08,27,03,55,12.80
2006,08,27,03,56,12.80
2006,08,27,03,57,12.80
2006,08,27,03,58,12.80
2006,08,27,03,59,12.80
2006,08,27,04,00,12.70
2006,08,27,04,01,12.70
2006,08,27,04,02,12.70
2006,08,27,04,03,12.70
2006,08,27,04,04,12.60
2006,08,27,04,05,12.60
2006,08,27,04,06,12.60
2006,08,27,04,07,12.50
2006,08,27,04,08,12.50
2006,08,27,04,09,12.50
2006,08,27,04,10,12.50
2006,08,27,04,11,12.40
2006,08,27,04,12,12.40
2006,08,27,04,13,12.40
2006,08,27,04,14,12.40
2006,08,27,04,15,12.40
2006,08,27,04,16,12.30
2006,08,27,04,17,12.30
2006,08,27,04,18,12.30
2006,08,27,04,19,12.30
2006,08,27,04,20,12.30
2006,08,27,04,21,12.30
2006,08,27,04,22,12.30
2006,08,27,04,23,12.30
2006,08,27,04,24,12.30
2006,08,27,04,25,12.30
2006,08,27,04,26,12.30
2006,08,27,04,27,12.30
2006,08,27,04,28,12.30
2006,08,27,04,29,12.20
2006,08,27,04,30,12.20
2006,08,27,04,31,12.20
2006,08,27,04,32,12.20
2006,08,27,04,33,12.20
2006,08,27,04,34,12.20
2006,08,27,04,35,12.20
2006,08,27,04,36,12.20
2006,08,27,04,37,12.10
2006,08,27,04,38,12.10
2006,08,27,04,39,12.10
2006,08,27,04,40,12.10
2006,08,27,04,41,12.10
2006,08,27,04,42,12.10
2006,08,27,04,43,12.10
2006,08,27,04,44,12.00
2006,08,27,04,45,12.00
2006,08,27,04,46,12.00
2006,08,27,04,47,12.00
2006,08,27,04,48,12.00
2006,08,27,04,49,12.00
2006,08,27,04,50,12.00
2006,08,27,04,51,11.90
2006,08,27,04,52,11.90
2006,08,27,04,53,11.90
2006,08,27,04,54,11.90
2006,08,27,04,55,11.90
2006,08,27,04,56,11.90
2006,08,27,04,57,11.90
2006,08,27,04,58,11.90
2006,08,27,04,59,11.90
2006,08,27,05,00,11.90
2006,08,27,05,01,12.00
2006,08,27,05,02,12.00
2006,08,27,05,03,12.00
2006,08,27,05,04,12.00
2006,08,27,05,05,12.00
2006,08,27,05,06,12.00
2006,08,27,05,07,12.00
2006,08,27,05,08,12.00
2006,08,27,05,09,12.00
2006,08,27,05,10,12.00
2006,08,27,05,11,12.00
2006,08,27,05,12,12.00
2006,08,27,05,13,12.00
2006,08,27,05,14,12.00
2006,08,27,05,15,12.00
2006,08,27,05,16,12.00
2006,08,27,05,17,12.00
2006,08,27,05,18,12.00
2006,08,27,05,19,12.00
2006,08,27,05,20,12.00
2006,08,27,05,21,12.00
2006,08,27,05,22,12.00
2006,08,27,05,23,12.00
2006,08,27,05,24,12.00
2006,08,27,05,25,12.00
2006,08,27,05,26,11.90
2006,08,27,05,27,11.90
2006,08,27,05,28,11.90
2006,08,27,05,29,11.90
2006,08,27,05,30,11.90
2006,08,27,05,31,11.90
2006,08,27,05,32,11.90
2006,08,27,05,33,11.90
2006,08,27,05,34,11.90
2006,08,27,05,35,11.90
2006,08,27,05,36,11.90
2006,08,27,05,37,11.90
2006,08,27,05,38,11.90
2006,08,27,05,39,11.90
2006,08,27,05,40,11.90
2006,08,27,05,41,11.90
2006,08,27,05,42,11.80
2006,08,27,05,43,11.80
2006,08,27,05,44,11.80
2006,08,27,05,45,11.80
2006,08,27,05,46,11.80
2006,08,27,05,47,11.80
2006,08,27,05,48,11.80
2006,08,27,05,49,11.80
2006,08,27,05,50,11.80
2006,08,27,05,51,11.80
2006,08,27,05,52,11.80
2006,08,27,05,53,11.80
2006,08,27,05,54,11.80
2006,08,27,05,55,11.80
2006,08,27,05,56,11.80
2006,08,27,05,57,11.80
2006,08,27,05,58,11.80
2006,08,27,05,59,11.80
2006,08,27,06,00,11.80
2006,08,27,06,01,11.80
2006,08,27,06,02,11.80
2006,08,27,06,03,11.80
2006,08,27,06,04,11.80
2006,08,27,06,05,11.80
2006,08,27,06,06,11.80
2006,08,27,06,07,11.80
2006,08,27,06,08,11.70
2006,08,27,06,09,11.70
2006,08,27,06,10,11.70
2006,08,27,06,11,11.70
2006,08,27,06,12,11.70
2006,08,27,06,13,11.70
2006,08,27,06,14,11.70
2006,08,27,06,15,11.70
2006,08,27,06,16,11.70
2006,08,27,06,17,11.70
2006,08,27,06,18,11.70
2006,08,27,06,19,11.70
2006,08,27,06,20,11.70
2006,08,27,06,21,11.70
2006,08,27,06,22,11.70
2006,08,27,06,23,11.60
2006,08,27,06,24,11.60
2006,08,27,06,25,11.60
2006,08,27,06,26,11.60
2006,08,27,06,27,11.60
2006,08,27,06,28,11.60
2006,08,27,06,29,11.60
2006,08,27,06,30,11.60
2006,08,27,06,31,11.60
2006,08,27,06,32,11.60
2006,08,27,06,33,11.60
2006,08,27,06,34,11.60
2006,08,27,06,35,11.50
2006,08,27,06,36,11.40
2006,08,27,06,37,11.40
2006,08,27,06,38,11.40
2006,08,27,06,39,11.40
2006,08,27,06,40,11.40
2006,08,27,06,41,11.40
2006,08,27,06,42,11.40
2006,08,27,06,43,11.40
2006,08,27,06,44,11.40
2006,08,27,06,45,11.40
2006,08,27,06,46,11.40
2006,08,27,06,47,11.50
2006,08,27,06,48,11.60
2006,08,27,06,49,11.60
2006,08,27,06,50,11.60
2006,08,27,06,51,11.60
2006,08,27,06,52,11.60
2006,08,27,06,53,11.60
2006,08,27,06,54,11.60
2006,08,27,06,55,11.60
2006,08,27,06,56,11.60
2006,08,27,06,57,11.60
2006,08,27,06,58,11.70
2006,08,27,06,59,11.70
2006,08,27,07,00,11.80
2006,08,27,07,01,11.80
2006,08,27,07,02,11.80
2006,08,27,07,03,11.80
2006,08,27,07,04,11.80
2006,08,27,07,05,11.90
2006,08,27,07,06,11.90
2006,08,27,07,07,12.00
2006,08,27,07,08,12.00
2006,08,27,07,09,12.10
2006,08,27,07,10,12.10
2006,08,27,07,11,12.20
2006,08,27,07,12,12.20
2006,08,27,07,13,12.20
2006,08,27,07,14,12.30
2006,08,27,07,15,12.30
2006,08,27,07,16,12.40
2006,08,27,07,17,12.50
2006,08,27,07,18,12.50
2006,08,27,07,19,12.60
2006,08,27,07,20,12.60
2006,08,27,07,21,12.70
2006,08,27,07,22,12.80
2006,08,27,07,23,12.80
2006,08,27,07,24,12.90
2006,08,27,07,25,12.90
2006,08,27,07,26,13.00
2006,08,27,07,27,13.00
2006,08,27,07,28,13.10
2006,08,27,07,29,13.10
2006,08,27,07,30,13.20
2006,08,27,07,31,13.30
2006,08,27,07,32,13.30
2006,08,27,07,33,13.40
2006,08,27,07,34,13.50
2006,08,27,07,35,13.50
2006,08,27,07,36,13.60
2006,08,27,07,37,13.70
2006,08,27,07,38,13.80
2006,08,27,07,39,13.90
2006,08,27,07,40,13.90
2006,08,27,07,41,14.00
2006,08,27,07,42,14.20
2006,08,27,07,43,14.30
2006,08,27,07,44,14.40
2006,08,27,07,45,14.40
2006,08,27,07,46,14.50
2006,08,27,07,47,14.60
2006,08,27,07,48,14.70
2006,08,27,07,49,14.80
2006,08,27,07,50,14.90
2006,08,27,07,51,15.00
2006,08,27,07,52,15.00
2006,08,27,07,53,15.10
2006,08,27,07,54,15.20
2006,08,27,07,55,15.30
2006,08,27,07,56,15.40
2006,08,27,07,57,15.50
2006,08,27,07,58,15.60
2006,08,27,07,59,15.70
2006,08,27,08,00,15.80
2006,08,27,08,01,15.90
2006,08,27,08,02,16.10
2006,08,27,08,03,16.10
2006,08,27,08,04,16.20
2006,08,27,08,05,16.30
2006,08,27,08,06,16.40
2006,08,27,08,07,16.40
2006,08,27,08,08,16.50
2006,08,27,08,09,16.60
2006,08,27,08,10,16.70
2006,08,27,08,11,16.70
2006,08,27,08,12,16.80
2006,08,27,08,13,16.80
2006,08,27,08,14,16.90
2006,08,27,08,15,17.00
2006,08,27,08,16,17.00
2006,08,27,08,17,17.10
2006,08,27,08,18,17.20
2006,08,27,08,19,17.30
2006,08,27,08,20,17.30
2006,08,27,08,21,17.40
2006,08,27,08,22,17.50
2006,08,27,08,23,17.60
2006,08,27,08,24,17.70
2006,08,27,08,25,17.80
2006,08,27,08,26,17.90
2006,08,27,08,27,18.00
2006,08,27,08,28,18.10
2006,08,27,08,29,18.20
2006,08,27,08,30,18.40
2006,08,27,08,31,18.50
2006,08,27,08,32,18.60
2006,08,27,08,33,18.70
2006,08,27,08,34,18.80
2006,08,27,08,35,18.90
2006,08,27,08,36,18.90
2006,08,27,08,37,19.00
2006,08,27,08,38,19.10
2006,08,27,08,39,19.10
2006,08,27,08,40,19.10
2006,08,27,08,41,19.10
2006,08,27,08,42,19.20
2006,08,27,08,43,19.30
2006,08,27,08,44,19.30
2006,08,27,08,45,19.30
2006,08,27,08,46,19.40
2006,08,27,08,47,19.40
2006,08,27,08,48,19.30
2006,08,27,08,49,19.30
2006,08,27,08,50,19.30
2006,08,27,08,51,19.30
2006,08,27,08,52,19.40
2006,08,27,08,53,19.40
2006,08,27,08,54,19.40
2006,08,27,08,55,19.40
2006,08,27,08,56,19.40
2006,08,27,08,57,19.40
2006,08,27,08,58,19.40
2006,08,27,08,59,19.40
2006,08,27,09,00,19.40
2006,08,27,09,01,19.40
2006,08,27,09,02,19.30
2006,08,27,09,03,19.30
2006,08,27,09,04,19.30
2006,08,27,09,05,19.30
2006,08,27,09,06,19.40
2006,08,27,09,07,19.40
2006,08,27,09,08,19.40
2006,08,27,09,09,19.50
2006,08,27,09,10,19.50
2006,08,27,09,11,19.60
2006,08,27,09,12,19.70
2006,08,27,09,13,19.80
2006,08,27,09,14,19.90
2006,08,27,09,15,19.90
2006,08,27,09,16,19.90
2006,08,27,09,17,19.90
2006,08,27,09,18,19.90
2006,08,27,09,19,19.90
2006,08,27,09,20,19.90
2006,08,27,09,21,19.90
2006,08,27,09,22,19.90
2006,08,27,09,23,19.90
2006,08,27,09,24,19.80
2006,08,27,09,25,19.80
2006,08,27,09,26,19.80
2006,08,27,09,27,19.80
2006,08,27,09,28,19.90
2006,08,27,09,29,19.90
2006,08,27,09,30,20.10
2006,08,27,09,31,20.10
2006,08,27,09,32,20.20
2006,08,27,09,33,20.20
2006,08,27,09,34,20.30
2006,08,27,09,35,20.10
2006,08,27,09,36,19.90
2006,08,27,09,37,19.80
2006,08,27,09,38,19.80
2006,08,27,09,39,19.80
2006,08,27,09,40,19.90
2006,08,27,09,41,20.00
2006,08,27,09,42,20.10
2006,08,27,09,43,20.20
2006,08,27,09,44,20.40
2006,08,27,09,45,20.50
2006,08,27,09,46,20.60
2006,08,27,09,47,20.70
2006,08,27,09,48,20.90
2006,08,27,09,49,21.00
2006,08,27,09,50,21.10
2006,08,27,09,51,21.10
2006,08,27,09,52,21.10
2006,08,27,09,53,21.00
2006,08,27,09,54,21.00
2006,08,27,09,55,20.90
2006,08,27,09,56,21.00
2006,08,27,09,57,21.00
2006,08,27,09,58,21.00
2006,08,27,09,59,21.10
2006,08,27,10,00,21.10
2006,08,27,10,01,21.10
2006,08,27,10,02,21.20
2006,08,27,10,03,21.20
2006,08,27,10,04,21.20
2006,08,27,10,05,21.20
2006,08,27,10,06,21.30
2006,08,27,10,07,21.30
2006,08,27,10,08,21.30
2006,08,27,10,09,21.40
2006,08,27,10,10,21.40
2006,08,27,10,11,21.30
2006,08,27,10,12,21.30
2006,08,27,10,13,21.30
2006,08,27,10,14,21.30
2006,08,27,10,15,21.30
2006,08,27,10,16,21.30
2006,08,27,10,17,21.20
2006,08,27,10,18,21.20
2006,08,27,10,19,21.20
2006,08,27,10,20,21.30
2006,08,27,10,21,21.30
2006,08,27,10,22,21.30
2006,08,27,10,23,21.20
2006,08,27,10,24,21.20
2006,08,27,10,25,21.10
2006,08,27,10,26,21.10
2006,08,27,10,27,21.10
2006,08,27,10,28,21.20
2006,08,27,10,29,21.30
2006,08,27,10,30,21.30
2006,08,27,10,31,21.20
2006,08,27,10,32,21.10
2006,08,27,10,33,21.00
2006,08,27,10,34,21.00
2006,08,27,10,35,21.00
2006,08,27,10,36,21.10
2006,08,27,10,37,21.20
2006,08,27,10,38,21.00
2006,08,27,10,39,20.90
2006,08,27,10,40,20.90
2006,08,27,10,41,20.90
2006,08,27,10,42,20.80
2006,08,27,10,43,20.90
2006,08,27,10,44,20.90
2006,08,27,10,45,21.00
2006,08,27,10,46,20.90
2006,08,27,10,47,20.80
2006,08,27,10,48,20.70
2006,08,27,10,49,20.70
2006,08,27,10,50,20.60
2006,08,27,10,51,20.60
2006,08,27,10,52,20.60
2006,08,27,10,53,20.50
2006,08,27,10,54,20.40
2006,08,27,10,55,20.20
2006,08,27,10,56,20.20
2006,08,27,10,57,20.20
2006,08,27,10,58,20.10
2006,08,27,10,59,20.10
2006,08,27,11,00,20.20
2006,08,27,11,01,20.20
2006,08,27,11,02,20.20
2006,08,27,11,03,20.20
2006,08,27,11,04,20.20
2006,08,27,11,05,20.20
2006,08,27,11,06,20.20
2006,08,27,11,07,20.20
2006,08,27,11,08,20.30
2006,08,27,11,09,20.40
2006,08,27,11,10,20.40
2006,08,27,11,11,20.40
2006,08,27,11,12,20.50
2006,08,27,11,13,20.50
2006,08,27,11,14,20.60
2006,08,27,11,15,20.60
2006,08,27,11,16,20.70
2006,08,27,11,17,20.70
2006,08,27,11,18,20.70
2006,08,27,11,19,20.50
2006,08,27,11,20,20.30
2006,08,27,11,21,20.30
2006,08,27,11,22,20.20
2006,08,27,11,23,20.20
2006,08,27,11,24,20.30
2006,08,27,11,25,20.30
2006,08,27,11,26,20.40
2006,08,27,11,27,20.40
2006,08,27,11,28,20.40
2006,08,27,11,29,20.40
2006,08,27,11,30,20.50
2006,08,27,11,31,20.50
2006,08,27,11,32,20.50
2006,08,27,11,33,20.50
2006,08,27,11,34,20.50
2006,08,27,11,35,20.50
2006,08,27,11,36,20.60
2006,08,27,11,37,20.50
2006,08,27,11,38,20.50
2006,08,27,11,39,20.70
2006,08,27,11,40,20.70
2006,08,27,11,41,20.90
2006,08,27,11,42,20.90
2006,08,27,11,43,20.80
2006,08,27,11,44,20.70
2006,08,27,11,45,20.70
2006,08,27,11,46,20.80
2006,08,27,11,47,21.00
2006,08,27,11,48,21.20
2006,08,27,11,49,21.20
2006,08,27,11,50,21.10
2006,08,27,11,51,21.00
2006,08,27,11,52,21.10
2006,08,27,11,53,21.20
2006,08,27,11,54,21.20
2006,08,27,11,55,21.00
2006,08,27,11,56,20.90
2006,08,27,11,57,20.90
2006,08,27,11,58,20.70
2006,08,27,11,59,20.70
2006,08,27,12,00,20.70
2006,08,27,12,01,20.80
2006,08,27,12,02,21.00
2006,08,27,12,03,21.30
2006,08,27,12,04,21.40
2006,08,27,12,05,21.50
2006,08,27,12,06,21.60
2006,08,27,12,07,21.60
2006,08,27,12,08,21.60
2006,08,27,12,09,21.70
2006,08,27,12,10,21.70
2006,08,27,12,11,21.80
2006,08,27,12,12,21.80
2006,08,27,12,13,21.80
2006,08,27,12,14,21.90
2006,08,27,12,15,21.80
2006,08,27,12,16,21.70
2006,08,27,12,17,21.60
2006,08,27,12,18,21.50
2006,08,27,12,19,21.40
2006,08,27,12,20,21.60
2006,08,27,12,21,21.60
2006,08,27,12,22,21.60
2006,08,27,12,23,21.60
2006,08,27,12,24,21.80
2006,08,27,12,25,21.80
2006,08,27,12,26,21.90
2006,08,27,12,27,21.90
2006,08,27,12,28,21.90
2006,08,27,12,29,21.90
2006,08,27,12,30,21.90
2006,08,27,12,31,22.00
2006,08,27,12,32,22.00
2006,08,27,12,33,22.00
2006,08,27,12,34,22.00
2006,08,27,12,35,22.00
2006,08,27,12,36,22.00
2006,08,27,12,37,22.00
2006,08,27,12,38,22.20
2006,08,27,12,39,22.30
2006,08,27,12,40,22.30
2006,08,27,12,41,22.30
2006,08,27,12,42,22.30
2006,08,27,12,43,22.20
2006,08,27,12,44,22.00
2006,08,27,12,45,22.00
2006,08,27,12,46,22.00
2006,08,27,12,47,22.20
2006,08,27,12,48,22.30
2006,08,27,12,49,22.30
2006,08,27,12,50,22.20
2006,08,27,12,51,22.20
2006,08,27,12,52,22.20
2006,08,27,12,53,22.10
2006,08,27,12,54,22.10
2006,08,27,12,55,22.10
2006,08,27,12,56,22.10
2006,08,27,12,57,22.10
2006,08,27,12,58,22.00
2006,08,27,12,59,22.10
2006,08,27,13,00,22.00
2006,08,27,13,01,22.00
2006,08,27,13,02,22.00
2006,08,27,13,03,22.00
2006,08,27,13,04,22.00
2006,08,27,13,05,22.00
2006,08,27,13,06,21.90
2006,08,27,13,07,21.90
2006,08,27,13,08,21.80
2006,08,27,13,09,21.80
2006,08,27,13,10,21.90
2006,08,27,13,11,22.00
2006,08,27,13,12,22.20
2006,08,27,13,13,22.20
2006,08,27,13,14,22.10
2006,08,27,13,15,22.00
2006,08,27,13,16,21.90
2006,08,27,13,17,21.80
2006,08,27,13,18,21.90
2006,08,27,13,19,21.90
2006,08,27,13,20,21.90
2006,08,27,13,21,22.00
2006,08,27,13,22,22.10
2006,08,27,13,23,22.10
2006,08,27,13,24,22.20
2006,08,27,13,25,22.20
2006,08,27,13,26,22.20
2006,08,27,13,27,22.10
2006,08,27,13,28,22.00
2006,08,27,13,29,22.00
2006,08,27,13,30,22.00
2006,08,27,13,31,22.00
2006,08,27,13,32,21.90
2006,08,27,13,33,21.90
2006,08,27,13,34,21.80
2006,08,27,13,35,21.80
2006,08,27,13,36,21.90
2006,08,27,13,37,22.00
2006,08,27,13,38,22.00
2006,08,27,13,39,22.00
2006,08,27,13,40,22.20
2006,08,27,13,41,22.30
2006,08,27,13,42,22.40
2006,08,27,13,43,22.50
2006,08,27,13,44,22.50
2006,08,27,13,45,22.50
2006,08,27,13,46,22.40
2006,08,27,13,47,22.30
2006,08,27,13,48,22.20
2006,08,27,13,49,22.20
2006,08,27,13,50,22.10
2006,08,27,13,51,22.00
2006,08,27,13,52,22.00
2006,08,27,13,53,22.00
2006,08,27,13,54,21.90
2006,08,27,13,55,22.00
2006,08,27,13,56,22.00
2006,08,27,13,57,22.20
2006,08,27,13,58,22.30
2006,08,27,13,59,22.30
2006,08,27,14,00,22.40
2006,08,27,14,01,22.30
2006,08,27,14,02,22.40
2006,08,27,14,03,22.50
2006,08,27,14,04,22.60
2006,08,27,14,05,22.60
2006,08,27,14,06,22.60
2006,08,27,14,07,22.60
2006,08,27,14,08,22.60
2006,08,27,14,09,22.60
2006,08,27,14,10,22.60
2006,08,27,14,11,22.70
2006,08,27,14,12,22.70
2006,08,27,14,13,22.80
2006,08,27,14,14,22.80
2006,08,27,14,15,22.80
2006,08,27,14,16,22.90
2006,08,27,14,17,22.90
2006,08,27,14,18,22.90
2006,08,27,14,19,23.00
2006,08,27,14,20,22.90
2006,08,27,14,21,22.90
2006,08,27,14,22,22.90
2006,08,27,14,23,22.90
2006,08,27,14,24,22.80
2006,08,27,14,25,22.80
2006,08,27,14,26,22.80
2006,08,27,14,27,22.80
2006,08,27,14,28,22.80
2006,08,27,14,29,22.90
2006,08,27,14,30,22.90
2006,08,27,14,31,22.80
2006,08,27,14,32,22.80
2006,08,27,14,33,22.90
2006,08,27,14,34,22.90
2006,08,27,14,35,22.90
2006,08,27,14,36,23.00
2006,08,27,14,37,23.10
2006,08,27,14,38,23.10
2006,08,27,14,39,23.10
2006,08,27,14,40,23.10
2006,08,27,14,41,22.90
2006,08,27,14,42,22.90
2006,08,27,14,43,22.90
2006,08,27,14,44,22.90
2006,08,27,14,45,22.90
2006,08,27,14,46,22.90
2006,08,27,14,47,22.90
2006,08,27,14,48,23.00
2006,08,27,14,49,23.10
2006,08,27,14,50,23.20
2006,08,27,14,51,23.30
2006,08,27,14,52,23.30
2006,08,27,14,53,23.30
2006,08,27,14,54,23.30
2006,08,27,14,55,23.30
2006,08,27,14,56,23.40
2006,08,27,14,57,23.40
2006,08,27,14,58,23.60
2006,08,27,14,59,23.60
2006,08,27,15,00,23.60
2006,08,27,15,01,23.70
2006,08,27,15,02,23.70
2006,08,27,15,03,23.70
2006,08,27,15,04,23.70
2006,08,27,15,05,23.70
2006,08,27,15,06,23.70
2006,08,27,15,07,23.70
2006,08,27,15,08,23.70
2006,08,27,15,09,23.70
2006,08,27,15,10,23.70
2006,08,27,15,11,23.70
2006,08,27,15,12,23.70
2006,08,27,15,13,23.70
2006,08,27,15,14,23.80
2006,08,27,15,15,23.80
2006,08,27,15,16,23.80
2006,08,27,15,17,23.70
2006,08,27,15,18,23.70
2006,08,27,15,19,23.60
2006,08,27,15,20,23.50
2006,08,27,15,21,23.60
2006,08,27,15,22,23.70
2006,08,27,15,23,23.70
2006,08,27,15,24,23.90
2006,08,27,15,25,23.90
2006,08,27,15,26,23.90
2006,08,27,15,27,23.80
2006,08,27,15,28,23.80
2006,08,27,15,29,23.90
2006,08,27,15,30,24.10
2006,08,27,15,31,24.20
2006,08,27,15,32,24.10
2006,08,27,15,33,24.10
2006,08,27,15,34,24.00
2006,08,27,15,35,23.90
2006,08,27,15,36,23.70
2006,08,27,15,37,23.60
2006,08,27,15,38,23.50
2006,08,27,15,39,23.50
2006,08,27,15,40,23.60
2006,08,27,15,41,23.70
2006,08,27,15,42,23.80
2006,08,27,15,43,23.80
2006,08,27,15,44,23.90
2006,08,27,15,45,23.80
2006,08,27,15,46,23.80
2006,08,27,15,47,23.80
2006,08,27,15,48,23.80
2006,08,27,15,49,23.80
2006,08,27,15,50,23.80
2006,08,27,15,51,23.90
2006,08,27,15,52,24.00
2006,08,27,15,53,24.10
2006,08,27,15,54,24.10
2006,08,27,15,55,24.20
2006,08,27,15,56,24.30
2006,08,27,15,57,24.20
2006,08,27,15,58,24.10
2006,08,27,15,59,24.10
2006,08,27,16,00,24.10
2006,08,27,16,01,24.10
2006,08,27,16,02,24.10
2006,08,27,16,03,24.20
2006,08,27,16,04,24.30
2006,08,27,16,05,24.40
2006,08,27,16,06,24.50
2006,08,27,16,07,24.50
2006,08,27,16,08,24.60
2006,08,27,16,09,24.60
2006,08,27,16,10,24.60
2006,08,27,16,11,24.50
2006,08,27,16,12,24.40
2006,08,27,16,13,24.50
2006,08,27,16,14,24.40
2006,08,27,16,15,24.40
2006,08,27,16,16,24.40
2006,08,27,16,17,24.40
2006,08,27,16,18,24.50
2006,08,27,16,19,24.50
2006,08,27,16,20,24.50
2006,08,27,16,21,24.50
2006,08,27,16,22,24.60
2006,08,27,16,23,24.70
2006,08,27,16,24,24.80
2006,08,27,16,25,24.80
2006,08,27,16,26,24.80
2006,08,27,16,27,24.80
2006,08,27,16,28,24.80
2006,08,27,16,29,24.90
2006,08,27,16,30,24.90
2006,08,27,16,31,25.00
2006,08,27,16,32,24.90
2006,08,27,16,33,24.80
2006,08,27,16,34,24.90
2006,08,27,16,35,24.90
2006,08,27,16,36,25.00
2006,08,27,16,37,25.00
2006,08,27,16,38,25.00
2006,08,27,16,39,25.00
2006,08,27,16,40,25.00
2006,08,27,16,41,25.00
2006,08,27,16,42,25.00
2006,08,27,16,43,25.00
2006,08,27,16,44,24.90
2006,08,27,16,45,25.00
2006,08,27,16,46,24.90
2006,08,27,16,47,24.90
2006,08,27,16,48,24.90
2006,08,27,16,49,25.00
2006,08,27,16,50,25.10
2006,08,27,16,51,25.10
2006,08,27,16,52,25.10
2006,08,27,16,53,25.10
2006,08,27,16,54,25.10
2006,08,27,16,55,25.10
2006,08,27,16,56,25.10
2006,08,27,16,57,25.10
2006,08,27,16,58,25.10
2006,08,27,16,59,25.10
2006,08,27,17,00,25.20
2006,08,27,17,01,25.20
2006,08,27,17,02,25.00
2006,08,27,17,03,25.00
2006,08,27,17,04,25.10
2006,08,27,17,05,25.10
2006,08,27,17,06,25.00
2006,08,27,17,07,25.00
2006,08,27,17,08,25.00
2006,08,27,17,09,24.90
2006,08,27,17,10,24.90
2006,08,27,17,11,24.90
2006,08,27,17,12,24.90
2006,08,27,17,13,24.90
2006,08,27,17,14,24.90
2006,08,27,17,15,24.80
2006,08,27,17,16,24.80
2006,08,27,17,17,24.70
2006,08,27,17,18,24.60
2006,08,27,17,19,24.60